Location: Moulis
(42.9609°N, 1.0909°E)
Time: 10:15:05
(UTC+00:00)

NOSS 2-3 (E) - Pass Details

Date: 11 December 2025
Orbit: 492 x 1706 km, 63.3° (Epoch: 24 April)

Event Time Altitude Azimuth Distance (km) Brightness Sun altitude
Rises 16:54:28 0° 193° (SSW) 2,680 7.5 -6.2°
Reaches altitude 10° 16:56:51 10° 184° (S) 1,725 6.3 -6.6°
Maximum altitude 17:00:12 32° 119° (ESE) 859 4.0 -7.1°
Drops below altitude 10° 17:03:31 10° 54° (NE) 1,711 5.2 -7.7°
Enters shadow 17:03:38 - 53° (NE) 1,757 5.2 -7.7°
